SCP
-0 -0 -0 -0 -0 -0 0 0 -0 -0 0 -0 -0 -0 -0 0 0 0 0 -0 -0 -0 -0 -0 -0 -0 -0 -0 -0 -0 -0 -0 0 0 0 0 0 0 0 0 0 0 0
-0 -0 0 -0 -0 -0 -0 -0 0 0 0 0 0 0 0 0 0 0 -0 -0 -0 -0 -0 -0 -0 -0 -0 -0 -0 0 0 0 0 0 -0 0 0 0 0 0 0 0 0
-0 -0 -0 -0 -0 -0 -0 -0 0 0 0 -0 0 0 0 0 0 0 0 0 -0 -0 -0 -0 0 -0 -0 -0 -0 0 0 0 0 0 -0 0 0 0 0 0 0 0 0
-0 -0 -0 -0 -0 -0 -0 -0 0 0 0 0 0 0 0 -0 0 0 0 0 -0 -0 0 -0 0 -0 -0 0 0 0 0 0 0 -0 0 0 0 0 0 0 0 0 0
-0 -0 -0 -0 -0 -0 -0 -0 -0 -0 -0 -0 0 0 0 0 0 0 0 -0 -0 0 0 0 0 0 0 0 0 0 0 0 0 0 0 0 0 0 0 0 0 0 0
-0 0 -0 -0 -0 0 -0 -0 -0 -0 -0 -0 -0 -0 -0 -0 -0 -0 0 0 0 0 0 0 0 0 0 0 0 0 0 0 -0 0 0 0 0 0 0 0 0 0 0
-0 -0 -0 -0 -0 -0 -0 0 -0 -0 0 -0 -0 -0 -0 -0 -0 -0 0 0 0 0 0 0 0 0 0 0 0 0 0 0 -0 0 0 0 0 0 0 0 0 0 0
-0 0 0 -0 -0 -0 -0 -0 -0 -0 -0 -0 0 -0 -0 0 0 0 -0 0 0 0 0 0 0 0 0 0 0 0 0 0 0 0 0 0 0 0 0 0 0 0 0
-0 0 0 -0 -0 0 0 -0 -0 -0 -0 0 -0 -0 0 0 0 -0 -0 -0 -0 0 0 0 0 0 0 0 0 0 0 0 0 0 0 0 0 0 0 0 0 0 0
-0 -0 -0 0 0 0 -0 -0 0 -0 -0 -0 -0 -0 0 -0 -0 -0 -0 -0 -0 0 0 0 0 0 0 0 0 0 0 0 0 0 0 0 0 0 0 0 0 0 0
0 0 -0 -0 -0 0 -0 0 -0 -0 -0 -0 -0 -0 0 0 -0 -0 0 0 0 0 0 0 0 0 0 0 0 0 0 0 0 0 0 0 0 0 0 0 0 0 0
0 0 0 0 0 -0 0 0 0 0 0 0 0 0 0 0 0 0 0 0 0 0 0 0 0 0 0 0 0 0 0 0 0 0 0 0 0 0 0 0 0 0 0
-0 -0 -0 -0 -0 0 0 0 0 0 0 0 0 0 0 0 0 0 0 0 0 0 0 0 0 0 0 0 0 0 0 0 0 0 0 0 0 0 0 0 0 0 0
-0 0 0 0 0 0 0 0 0 0 0 0 0 0 0 0 0 0 0 0 0 0 0 0 0 0 0 0 0 0 0 0 0 0 0 0 0 0 0 0 0 0 0
-0 0 0 0 0 0 0 0 0 0 0 0 0 0 0 0 0 0 0 0 0 0 0 0 0 0 0 0 0 0 0 0 0 0 0 0 0 0 0 0 0 0 0
0 0 0 0 0 0 0 0 0 0 0 0 0 0 0 0 0 0 0 0 0 0 0 0 0 0 0 0 0 0 0 0 0 0 0 0 0 0 0 0 0 0 0
0 0 0 0 0 0 0 0 0 0 0 0 0 0 0 0 0 0 0 0 0 0 0 0 0 0 0 0 0 0 0 0 0 0 0 0 0 0 0 0 0 0 0
0 0 0 0 0 0 0 0 0 0 0 0 0 0 0 0 0 0 0 0 0 0 0 0 0 0 0 0 0 0 0 0 0 0 0 0 0 0 0 0 0 0 0
0 0 0 0 0 0 0 0 0 0 0 0 0 0 0 0 0 0 0 0 0 0 0 0 0 0 0 0 0 0 0 0 0 0 0 0 0 0 0 0 0 0 0
0 0 0 0 0 0 0 0 0 0 0 0 0 0 0 0 0 0 0 0 0 0 0 0 0 0 0 0 0 0 0 0 0 0 0 0 0 0 0 0 0 0 0
0 0 0 0 0 0 0 0 0 0 0 0 0 0 0 0 0 0 0 0 0 0 0 0 0 0 0 0 0 0 0 0 0 0 0 0 0 0 0 0 0 0 0
0 0 0 0 0 0 0 0 0 0 0 0 0 0 0 0 0 0 0 0 0 0 0 0 0 0 0 0 0 0 0 0 0 0 0 0 0 0 0 0 0 0 0
0 0 0 0 0 0 0 0 0 0 0 0 0 0 0 0 0 0 0 0 0 0 0 0 0 0 0 0 0 0 0 0 0 0 0 0 0 0 0 0 0 0 0
0 0 0 0 0 0 0 0 0 0 0 0 0 0 0 0 0 0 0 0 0 0 0 0 0 0 0 0 0 0 0 0 0 0 0 0 0 0 0 0 0 0 0
0 0 0 0 0 0 0 0 0 0 0 0 0 0 0 0 0 0 0 0 0 0 0 0 0 0 0 0 0 0 0 0 0 0 0 0 0 0 0 0 0 0 0
0 0 0 0 0 0 0 0 0 0 0 0 0 0 0 0 0 0 0 0 0 0 0 0 0 0 0 0 0 0 0 0 0 0 0 0 0 0 0 0 0 0 0
Wind_Speed_500mb
30 25 20 17 19 22 24 25 24 20 16 20 23 24 21 21 19 19 22 23 14 11 4 6 10 12 16 17 17 19 20 21 20 21 22 26 24 23 25 25 29 19 19
33 28 21 17 18 21 24 23 20 15 14 14 16 19 18 16 14 13 14 14 10 4 5 6 11 11 12 17 18 19 21 21 21 23 25 28 26 26 23 18 14 11 11
31 27 23 16 16 19 22 22 19 14 11 9 11 10 11 11 11 9 9 10 9 7 5 4 9 12 14 14 16 20 21 22 20 21 23 18 17 21 13 8 10 9 8
30 25 20 15 15 18 21 20 17 13 9 8 5 3 6 7 9 9 9 9 10 13 9 1 7 9 11 12 15 17 18 18 18 17 15 16 15 16 14 11 10 10 14
31 25 20 15 14 17 20 21 15 10 5 4 1 1 5 8 8 9 9 7 9 8 8 6 3 4 8 11 13 14 15 15 16 16 13 13 13 12 15 15 11 6 4
31 25 22 16 14 16 18 21 20 14 11 10 3 2 6 6 6 8 9 8 7 5 7 7 6 3 4 8 11 12 12 13 14 12 10 10 11 9 11 14 15 8 3
31 28 23 17 13 13 15 19 23 22 17 10 4 4 4 5 4 3 5 4 4 4 5 8 11 5 5 7 10 10 9 10 10 10 10 8 7 9 6 9 12 13 10
28 25 21 16 11 9 9 11 16 17 14 7 5 5 2 3 0 1 1 1 1 1 5 7 8 10 10 10 12 13 12 11 11 10 9 9 8 8 8 9 8 10 12
24 20 16 13 11 9 8 8 9 11 10 8 8 10 13 5 2 5 5 4 2 1 3 4 7 8 8 10 12 14 15 13 12 13 11 11 11 10 8 7 13 13 13
28 24 21 20 16 12 10 10 9 9 9 10 10 9 7 3 3 6 7 7 8 8 8 8 8 10 11 13 14 15 15 16 16 16 15 14 13 13 12 9 8 15 18
31 27 24 21 19 15 13 13 12 11 10 8 9 11 10 10 11 11 11 13 14 14 14 15 15 15 15 15 16 17 17 17 19 20 18 17 15 14 14 14 13 13 16
33 30 26 24 20 18 16 14 13 13 12 10 10 11 13 14 15 16 17 17 18 19 20 20 19 18 19 18 19 20 20 21 21 19 19 18 18 18 16 17 17 16 18
30 29 27 25 23 21 19 17 15 14 12 12 11 12 12 14 15 18 20 21 23 23 25 26 25 25 24 23 23 24 24 24 24 25 23 22 22 22 20 19 18 18 19
30 26 25 24 23 21 21 20 19 18 16 13 13 16 18 19 19 20 22 23 25 27 29 30 31 31 32 31 31 30 29 28 28 30 28 26 26 25 24 21 20 21 19
32 28 25 24 23 23 25 25 25 23 21 19 21 22 23 24 23 24 25 28 30 31 33 34 35 36 37 37 37 37 35 34 34 35 34 30 29 27 24 20 23 23 20
31 29 27 27 25 26 26 27 29 30 28 26 25 25 25 26 28 29 30 31 33 36 37 38 38 39 40 41 40 40 39 39 38 38 37 35 30 27 22 23 23 24 25
33 32 31 32 31 32 31 31 33 34 33 31 29 31 33 35 37 39 40 41 41 44 42 44 45 42 41 41 41 40 42 43 42 40 37 34 22 23 22 25 27 27 30
39 37 36 37 38 38 39 38 38 40 39 36 36 37 40 44 47 50 52 52 51 54 52 51 49 50 49 48 45 44 41 36 33 32 29 23 23 24 28 31 34 38 35
42 43 45 45 44 45 45 46 45 46 46 44 42 43 46 50 52 56 58 58 58 61 61 57 55 51 48 48 51 48 47 44 42 37 31 32 37 39 42 42 43 41 38
50 52 55 56 54 54 56 56 55 53 53 51 48 46 47 51 53 56 60 63 64 64 63 62 59 53 48 46 46 45 49 48 45 44 41 44 49 51 49 50 47 44 41
63 67 69 70 67 65 63 63 64 62 60 57 54 49 50 54 57 61 62 65 62 60 58 57 55 52 54 52 57 52 51 54 55 57 56 56 59 54 50 47 42 40 40
65 66 64 62 62 61 60 62 66 66 64 60 55 52 53 58 60 62 62 59 57 54 50 50 51 52 55 50 54 44 33 29 40 44 47 48 48 46 37 36 37 36 35
66 64 62 58 50 49 54 58 62 65 64 59 55 52 55 58 59 57 56 54 52 50 48 45 47 54 55 50 49 40 18 20 24 27 26 36 38 39 38 36 38 37 36
42 48 56 55 58 55 51 53 57 60 60 57 52 52 55 52 54 53 51 48 44 43 44 48 51 54 53 55 45 46 50 44 28 17 31 50 53 49 49 47 44 38 33
29 41 43 48 45 47 49 51 53 54 53 51 50 52 51 48 47 49 46 40 37 38 42 48 52 54 57 61 59 54 55 55 47 37 32 43 37 51 51 42 42 39 33
25 31 36 42 42 42 43 46 48 47 46 44 47 47 44 44 42 41 38 34 34 38 40 43 49 53 49 56 57 57 55 50 54 52 46 47 51 51 50 49 40 37 31
Wind_Direction_500mb
171 165 151 144 144 145 147 146 141 132 120 119 123 120 125 125 121 129 126 117 120 112 105 103 52 35 37 37 40 49 58 68 67 64 70 73 65 81 103 99 76 76 109
168 162 147 141 147 148 151 148 154 153 141 137 146 150 149 151 143 137 147 154 144 93 15 88 48 36 37 40 43 55 61 65 68 69 69 53 61 79 107 106 109 107 124
169 161 149 141 146 157 156 154 154 146 136 129 137 147 168 185 190 186 181 192 206 179 87 41 37 31 38 39 47 55 59 62 65 65 65 65 54 63 85 67 60 90 129
165 160 155 142 146 160 162 162 163 164 154 134 128 185 198 192 198 201 209 213 206 205 150 310 22 37 29 41 51 59 61 62 61 64 60 62 56 41 53 37 39 64 67
162 162 160 146 151 162 170 167 163 170 153 162 352 175 207 194 196 192 201 205 179 157 149 133 26 31 25 31 43 46 49 55 54 53 53 50 55 36 48 39 41 66 92
159 162 159 152 150 163 172 169 165 188 206 240 250 148 146 159 168 174 175 157 132 129 147 157 167 1 22 13 11 18 26 32 37 34 35 26 35 30 48 35 36 40 357
161 162 161 159 153 157 171 175 174 192 224 247 254 177 132 108 74 132 160 175 183 175 167 202 213 230 315 328 331 341 342 355 6 359 0 4 357 8 16 35 27 19 6
167 164 166 159 151 141 145 165 185 201 216 227 229 200 203 139 96 61 125 127 81 235 210 227 249 271 273 286 302 311 316 324 332 330 327 323 315 329 344 314 349 8 356
166 166 172 172 163 152 145 150 176 198 217 217 215 193 229 220 224 268 263 260 265 245 245 261 256 268 273 277 285 295 303 308 307 306 306 299 294 289 295 299 302 316 335
170 173 178 185 186 184 182 175 186 196 203 208 215 233 217 269 293 268 269 275 276 278 279 278 277 276 278 279 283 288 294 297 300 299 294 286 289 286 279 295 282 290 307
177 178 183 185 190 194 196 202 202 205 213 218 222 243 265 272 275 274 274 277 279 282 281 280 278 277 277 278 280 283 283 286 289 290 292 282 280 287 275 284 287 272 281
183 182 182 187 187 193 197 203 207 214 215 219 226 235 244 253 261 266 271 272 274 276 278 279 277 272 272 276 284 285 284 282 283 284 281 279 279 279 278 278 284 282 265
182 190 186 186 190 192 196 200 202 204 211 218 227 240 250 258 265 270 272 274 274 274 273 273 274 273 272 273 276 278 281 283 284 282 280 277 277 280 284 286 287 281 271
191 193 199 201 205 206 211 214 215 219 223 232 249 259 265 267 271 275 278 279 278 277 275 272 273 271 270 271 273 275 278 279 280 280 281 278 278 280 283 286 284 277 276
202 203 210 218 223 227 230 232 232 233 236 243 253 262 268 273 274 274 277 278 280 278 277 274 272 271 270 269 270 272 274 275 276 278 280 279 279 279 279 278 268 269 269
214 217 222 227 229 236 244 246 246 244 242 246 255 264 266 272 275 275 276 277 279 279 276 273 271 270 269 270 271 273 274 273 273 273 277 278 277 277 267 255 259 263 270
228 233 234 241 242 244 248 250 250 251 249 253 260 265 268 271 274 275 274 275 278 279 276 273 269 268 272 275 276 278 277 274 272 274 278 275 273 256 250 256 261 265 279
238 240 243 245 248 251 253 258 260 255 253 259 263 269 274 275 275 275 277 279 279 275 273 270 269 270 268 271 275 276 279 280 281 286 290 268 257 258 258 256 258 263 267
248 251 252 253 254 257 257 258 262 260 256 259 264 272 279 281 279 277 277 278 277 274 270 267 266 266 269 273 273 275 274 273 276 275 273 263 259 260 264 266 264 265 268
262 260 260 259 258 258 259 258 257 258 258 259 264 271 279 278 278 277 278 279 277 272 268 263 260 265 264 268 272 270 271 271 268 267 263 257 259 260 262 264 262 258 256
265 266 268 267 264 259 257 257 257 259 258 259 261 267 279 279 277 278 278 280 275 272 267 262 256 256 261 260 266 266 266 266 265 261 261 258 257 260 254 259 249 253 245
267 266 270 271 265 259 258 257 255 257 260 259 261 268 279 281 279 278 279 279 276 271 265 260 255 257 262 260 262 268 268 268 267 260 260 254 255 255 240 235 235 236 233
267 269 266 265 265 263 263 259 256 255 257 258 261 272 279 280 280 280 280 277 271 265 260 257 253 256 260 263 257 253 265 244 250 250 232 237 231 221 223 229 236 233 242
272 267 261 262 262 262 261 259 257 256 256 259 266 276 281 282 284 283 280 273 267 259 252 250 250 255 258 260 261 258 258 259 249 229 221 199 201 215 223 224 224 232 231
282 265 260 253 253 255 258 259 256 254 257 263 271 280 283 286 287 286 281 270 263 258 254 253 253 255 258 261 257 264 261 260 256 244 230 220 208 204 205 210 224 223 227
304 269 260 255 254 254 260 263 261 262 265 271 277 278 285 289 288 286 276 268 263 260 260 261 261 262 258 264 264 261 253 254 256 246 233 221 211 211 212 212 214 218 226
Wind_Speed_850mb
30 25 20 17 19 22 24 25 24 20 16 20 23 24 21 21 19 19 22 23 14 11 4 6 10 12 16 17 17 19 20 21 20 21 22 26 24 23 25 25 29 19 19
33 28 21 17 18 21 24 23 20 15 14 14 16 19 18 16 14 13 14 14 10 4 5 6 11 11 12 17 18 19 21 21 21 23 25 28 26 26 23 18 14 11 11
31 27 23 16 16 19 22 22 19 14 11 9 11 10 11 11 11 9 9 10 9 7 5 4 9 12 14 14 16 20 21 22 20 21 23 18 17 21 13 8 10 9 8
30 25 20 15 15 18 21 20 17 13 9 8 5 3 6 7 9 9 9 9 10 13 9 1 7 9 11 12 15 17 18 18 18 17 15 16 15 16 14 11 10 10 14
31 25 20 15 14 17 20 21 15 10 5 4 1 1 5 8 8 9 9 7 9 8 8 6 3 4 8 11 13 14 15 15 16 16 13 13 13 12 15 15 11 6 4
31 25 22 16 14 16 18 21 20 14 11 10 3 2 6 6 6 8 9 8 7 5 7 7 6 3 4 8 11 12 12 13 14 12 10 10 11 9 11 14 15 8 3
31 28 23 17 13 13 15 19 23 22 17 10 4 4 4 5 4 3 5 4 4 4 5 8 11 5 5 7 10 10 9 10 10 10 10 8 7 9 6 9 12 13 10
28 25 21 16 11 9 9 11 16 17 14 7 5 5 2 3 0 1 1 1 1 1 5 7 8 10 10 10 12 13 12 11 11 10 9 9 8 8 8 9 8 10 12
24 20 16 13 11 9 8 8 9 11 10 8 8 10 13 5 2 5 5 4 2 1 3 4 7 8 8 10 12 14 15 13 12 13 11 11 11 10 8 7 13 13 13
28 24 21 20 16 12 10 10 9 9 9 10 10 9 7 3 3 6 7 7 8 8 8 8 8 10 11 13 14 15 15 16 16 16 15 14 13 13 12 9 8 15 18
31 27 24 21 19 15 13 13 12 11 10 8 9 11 10 10 11 11 11 13 14 14 14 15 15 15 15 15 16 17 17 17 19 20 18 17 15 14 14 14 13 13 16
33 30 26 24 20 18 16 14 13 13 12 10 10 11 13 14 15 16 17 17 18 19 20 20 19 18 19 18 19 20 20 21 21 19 19 18 18 18 16 17 17 16 18
30 29 27 25 23 21 19 17 15 14 12 12 11 12 12 14 15 18 20 21 23 23 25 26 25 25 24 23 23 24 24 24 24 25 23 22 22 22 20 19 18 18 19
30 26 25 24 23 21 21 20 19 18 16 13 13 16 18 19 19 20 22 23 25 27 29 30 31 31 32 31 31 30 29 28 28 30 28 26 26 25 24 21 20 21 19
32 28 25 24 23 23 25 25 25 23 21 19 21 22 23 24 23 24 25 28 30 31 33 34 35 36 37 37 37 37 35 34 34 35 34 30 29 27 24 20 23 23 20
31 29 27 27 25 26 26 27 29 30 28 26 25 25 25 26 28 29 30 31 33 36 37 38 38 39 40 41 40 40 39 39 38 38 37 35 30 27 22 23 23 24 25
33 32 31 32 31 32 31 31 33 34 33 31 29 31 33 35 37 39 40 41 41 44 42 44 45 42 41 41 41 40 42 43 42 40 37 34 22 23 22 25 27 27 30
39 37 36 37 38 38 39 38 38 40 39 36 36 37 40 44 47 50 52 52 51 54 52 51 49 50 49 48 45 44 41 36 33 32 29 23 23 24 28 31 34 38 35
42 43 45 45 44 45 45 46 45 46 46 44 42 43 46 50 52 56 58 58 58 61 61 57 55 51 48 48 51 48 47 44 42 37 31 32 37 39 42 42 43 41 38
50 52 55 56 54 54 56 56 55 53 53 51 48 46 47 51 53 56 60 63 64 64 63 62 59 53 48 46 46 45 49 48 45 44 41 44 49 51 49 50 47 44 41
63 67 69 70 67 65 63 63 64 62 60 57 54 49 50 54 57 61 62 65 62 60 58 57 55 52 54 52 57 52 51 54 55 57 56 56 59 54 50 47 42 40 40
65 66 64 62 62 61 60 62 66 66 64 60 55 52 53 58 60 62 62 59 57 54 50 50 51 52 55 50 54 44 33 29 40 44 47 48 48 46 37 36 37 36 35
66 64 62 58 50 49 54 58 62 65 64 59 55 52 55 58 59 57 56 54 52 50 48 45 47 54 55 50 49 40 18 20 24 27 26 36 38 39 38 36 38 37 36
42 48 56 55 58 55 51 53 57 60 60 57 52 52 55 52 54 53 51 48 44 43 44 48 51 54 53 55 45 46 50 44 28 17 31 50 53 49 49 47 44 38 33
29 41 43 48 45 47 49 51 53 54 53 51 50 52 51 48 47 49 46 40 37 38 42 48 52 54 57 61 59 54 55 55 47 37 32 43 37 51 51 42 42 39 33
25 31 36 42 42 42 43 46 48 47 46 44 47 47 44 44 42 41 38 34 34 38 40 43 49 53 49 56 57 57 55 50 54 52 46 47 51 51 50 49 40 37 31
Wind_Direction_850mb
171 165 151 144 144 145 147 146 141 132 120 119 123 120 125 125 121 129 126 117 120 112 105 103 52 35 37 37 40 49 58 68 67 64 70 73 65 81 103 99 76 76 109
168 162 147 141 147 148 151 148 154 153 141 137 146 150 149 151 143 137 147 154 144 93 15 88 48 36 37 40 43 55 61 65 68 69 69 53 61 79 107 106 109 107 124
169 161 149 141 146 157 156 154 154 146 136 129 137 147 168 185 190 186 181 192 206 179 87 41 37 31 38 39 47 55 59 62 65 65 65 65 54 63 85 67 60 90 129
165 160 155 142 146 160 162 162 163 164 154 134 128 185 198 192 198 201 209 213 206 205 150 310 22 37 29 41 51 59 61 62 61 64 60 62 56 41 53 37 39 64 67
162 162 160 146 151 162 170 167 163 170 153 162 352 175 207 194 196 192 201 205 179 157 149 133 26 31 25 31 43 46 49 55 54 53 53 50 55 36 48 39 41 66 92
159 162 159 152 150 163 172 169 165 188 206 240 250 148 146 159 168 174 175 157 132 129 147 157 167 1 22 13 11 18 26 32 37 34 35 26 35 30 48 35 36 40 357
161 162 161 159 153 157 171 175 174 192 224 247 254 177 132 108 74 132 160 175 183 175 167 202 213 230 315 328 331 341 342 355 6 359 0 4 357 8 16 35 27 19 6
167 164 166 159 151 141 145 165 185 201 216 227 229 200 203 139 96 61 125 127 81 235 210 227 249 271 273 286 302 311 316 324 332 330 327 323 315 329 344 314 349 8 356
166 166 172 172 163 152 145 150 176 198 217 217 215 193 229 220 224 268 263 260 265 245 245 261 256 268 273 277 285 295 303 308 307 306 306 299 294 289 295 299 302 316 335
170 173 178 185 186 184 182 175 186 196 203 208 215 233 217 269 293 268 269 275 276 278 279 278 277 276 278 279 283 288 294 297 300 299 294 286 289 286 279 295 282 290 307
177 178 183 185 190 194 196 202 202 205 213 218 222 243 265 272 275 274 274 277 279 282 281 280 278 277 277 278 280 283 283 286 289 290 292 282 280 287 275 284 287 272 281
183 182 182 187 187 193 197 203 207 214 215 219 226 235 244 253 261 266 271 272 274 276 278 279 277 272 272 276 284 285 284 282 283 284 281 279 279 279 278 278 284 282 265
182 190 186 186 190 192 196 200 202 204 211 218 227 240 250 258 265 270 272 274 274 274 273 273 274 273 272 273 276 278 281 283 284 282 280 277 277 280 284 286 287 281 271
191 193 199 201 205 206 211 214 215 219 223 232 249 259 265 267 271 275 278 279 278 277 275 272 273 271 270 271 273 275 278 279 280 280 281 278 278 280 283 286 284 277 276
202 203 210 218 223 227 230 232 232 233 236 243 253 262 268 273 274 274 277 278 280 278 277 274 272 271 270 269 270 272 274 275 276 278 280 279 279 279 279 278 268 269 269
214 217 222 227 229 236 244 246 246 244 242 246 255 264 266 272 275 275 276 277 279 279 276 273 271 270 269 270 271 273 274 273 273 273 277 278 277 277 267 255 259 263 270
228 233 234 241 242 244 248 250 250 251 249 253 260 265 268 271 274 275 274 275 278 279 276 273 269 268 272 275 276 278 277 274 272 274 278 275 273 256 250 256 261 265 279
238 240 243 245 248 251 253 258 260 255 253 259 263 269 274 275 275 275 277 279 279 275 273 270 269 270 268 271 275 276 279 280 281 286 290 268 257 258 258 256 258 263 267
248 251 252 253 254 257 257 258 262 260 256 259 264 272 279 281 279 277 277 278 277 274 270 267 266 266 269 273 273 275 274 273 276 275 273 263 259 260 264 266 264 265 268
262 260 260 259 258 258 259 258 257 258 258 259 264 271 279 278 278 277 278 279 277 272 268 263 260 265 264 268 272 270 271 271 268 267 263 257 259 260 262 264 262 258 256
265 266 268 267 264 259 257 257 257 259 258 259 261 267 279 279 277 278 278 280 275 272 267 262 256 256 261 260 266 266 266 266 265 261 261 258 257 260 254 259 249 253 245
267 266 270 271 265 259 258 257 255 257 260 259 261 268 279 281 279 278 279 279 276 271 265 260 255 257 262 260 262 268 268 268 267 260 260 254 255 255 240 235 235 236 233
267 269 266 265 265 263 263 259 256 255 257 258 261 272 279 280 280 280 280 277 271 265 260 257 253 256 260 263 257 253 265 244 250 250 232 237 231 221 223 229 236 233 242
272 267 261 262 262 262 261 259 257 256 256 259 266 276 281 282 284 283 280 273 267 259 252 250 250 255 258 260 261 258 258 259 249 229 221 199 201 215 223 224 224 232 231
282 265 260 253 253 255 258 259 256 254 257 263 271 280 283 286 287 286 281 270 263 258 254 253 253 255 258 261 257 264 261 260 256 244 230 220 208 204 205 210 224 223 227
304 269 260 255 254 254 260 263 261 262 265 271 277 278 285 289 288 286 276 268 263 260 260 261 261 262 258 264 264 261 253 254 256 246 233 221 211 211 212 212 214 218 226